Location: Kaseke
(18.0171°S, 31.0526°E)
Time: 12:19:40
(UTC+00:00)

Cosmos 1689 Rocket - Pass Details

Date: 14 July 2020
Orbit: 365 x 382 km, 97.5° (Epoch: 07 August)

Event Time Altitude Azimuth Distance (km) Brightness Sun altitude
Rises 03:22:49 0° 175° (S) 2,280 5.9 -15.3°
Reaches altitude 10° 03:24:48 10° 179° (S) 1,421 4.8 -14.8°
Maximum altitude 03:27:47 56° 258° (WSW) 464 2.1 -14.1°
Drops below altitude 10° 03:30:44 10° 337° (NNW) 1,404 4.9 -13.5°
Sets 03:32:41 0° 342° (NNW) 2,250 6.0 -13.0°
